Location: Borz?cin
(51.1714°N, 19.6030°E)
Time: 18:10:17
(UTC+00:00)

Cosmos 1339 Rocket - Pass Details

Date: 19 May 2025
Orbit: 942 x 1005 km, 82.9° (Epoch: 21 June)

Event Time Altitude Azimuth Distance (km) Brightness Sun altitude
Exits shadow 21:35:55 26° 183° (S) 1,751 5.3 -17.6°
Maximum altitude 21:39:29 84° 98° (E) 956 4.4 -17.7°
Drops below altitude 10° 21:45:36 10° 11° (N) 2,673 7.8 -17.9°
Sets 21:48:05 0° 11° (N) 3,624 8.7 -18.0°
